Weather History for Anniston, AL

Change the Weather History Date:

Friday, November 8, 2013

  Actual Average Record
Temperature  
Mean Temperature 47 °F 56 °F  
Max Temperature 62 °F 68 °F 84 °F (2005)
Min Temperature 32 °F 44 °F 24 °F (1967)
Degree Days  
Heating Degree Days 18    
Month to date heating degree days 77  
Since 1 July heating degree days 179  
Moisture  
Dew Point 31 °F    
Average Humidity 58    
Maximum Humidity 92    
Minimum Humidity 23    
Precipitation  
Precipitation 0.00 in 0.15 in 1.86 in (1943)
Month to date precipitation 0.64 1.08  
Year to date precipitation 64.01 42.05  
Sea Level Pressure  
Sea Level Pressure 30.32 in    
Wind  
Wind Speed 4 mph (NE)    
Max Wind Speed 16 mph    
Max Gust Speed 23 mph    
Visibility 10 miles    
Events      
T = Trace of Precipitation, MM = Missing Value Source: NWS Daily Summary

Daily Weather History Graph

Daily Weather History Graph

Search for Another Location

Airport:

Trip Planner

Search our weather history database for the weather conditions in past years. The results will help you decide how hot, cold, wet, or windy it might be!

Date:

Astronomy

Nov. 08, 2013 Rise Set
Actual Time 6:08 AM CST 4:45 PM CST
Civil Twilight 5:42 AM CST 5:11 PM CST
Nautical Twilight 5:13 AM CST 5:40 PM CST
Astronomical Twilight 4:43 AM CST 6:10 PM CST
Moon 11:03 AM CST (11/8) 10:04 PM CST (11/8)
Length of Visible Light 11h 28m
Length of Day
10h 36m
Waxing Crescent, 33% of the Moon is Illuminated
Nov 8
Waxing Crescent
Nov 9
First Quarter
Nov 17
Full
Nov 25
Last Quarter
Dec 2
New

Hourly Weather History & Observations

Time (CST) Temp. Windchill Dew Point Humidity Pressure Visibility Wind Dir Wind Speed Gust Speed Precip Events Conditions
12:53 AM 37.0 °F - 33.1 °F 86% 30.31 in 10.0 mi Calm Calm - N/A   Clear
1:53 AM 36.0 °F - 32.0 °F 86% 30.31 in 10.0 mi Calm Calm - N/A   Clear
2:53 AM 34.0 °F - 30.9 °F 89% 30.31 in 10.0 mi Calm Calm - N/A   Clear
3:53 AM 32.0 °F - 30.0 °F 92% 30.32 in 10.0 mi Calm Calm - N/A   Clear
4:53 AM 34.0 °F - 30.9 °F 89% 30.33 in 10.0 mi Calm Calm - N/A   Clear
5:53 AM 37.9 °F 34.4 °F 28.9 °F 70% 30.35 in 10.0 mi North 4.6 mph - N/A   Clear
6:53 AM 36.0 °F - 32.0 °F 86% 30.38 in 10.0 mi Calm Calm - N/A   Clear
7:53 AM 43.0 °F 40.3 °F 32.0 °F 65% 30.39 in 10.0 mi East 4.6 mph - N/A   Clear
8:53 AM 51.1 °F - 30.9 °F 46% 30.38 in 10.0 mi NE 9.2 mph - N/A   Clear
9:53 AM 53.1 °F - 28.0 °F 38% 30.38 in 10.0 mi East 11.5 mph 19.6 mph N/A   Clear
10:53 AM 55.9 °F - 28.0 °F 34% 30.37 in 10.0 mi ENE 9.2 mph - N/A   Clear
11:53 AM 57.9 °F - 26.1 °F 30% 30.34 in 10.0 mi ESE 5.8 mph - N/A   Clear
12:53 PM 60.1 °F - 27.0 °F 28% 30.30 in 10.0 mi Variable 3.5 mph - N/A   Clear
1:53 PM 61.0 °F - 24.1 °F 24% 30.29 in 10.0 mi North 5.8 mph - N/A   Clear
2:53 PM 61.0 °F - 23.0 °F 23% 30.28 in 10.0 mi North 8.1 mph - N/A   Clear
3:53 PM 59.0 °F - 25.0 °F 27% 30.28 in 10.0 mi North 8.1 mph - N/A   Clear
4:53 PM 55.0 °F - 24.1 °F 30% 30.28 in 10.0 mi North 6.9 mph - N/A   Clear
5:53 PM 48.9 °F - 33.1 °F 54% 30.28 in 10.0 mi Calm Calm - N/A   Clear
6:53 PM 43.0 °F - 36.0 °F 76% 30.30 in 10.0 mi Calm Calm - N/A   Clear
7:53 PM 39.9 °F - 35.1 °F 83% 30.30 in 10.0 mi Calm Calm - N/A   Clear
8:53 PM 41.0 °F 39.0 °F 37.0 °F 86% 30.30 in 10.0 mi East 3.5 mph - N/A   Clear
9:53 PM 42.1 °F 40.2 °F 36.0 °F 79% 30.29 in 10.0 mi East 3.5 mph - N/A   Clear
10:53 PM 43.0 °F - 35.1 °F 74% 30.29 in 10.0 mi Calm Calm - N/A   Clear
11:53 PM 42.1 °F - 36.0 °F 79% 30.29 in 10.0 mi Calm Calm - N/A   Clear